Regional Weather Roundup
Issued by NWS

Home | Current Version | Previous Version | Text Only | Print | Product List | Glossary Off
Versions: 1 2 3 4 5 6 7 8 9 10 11 12 13 14 15 16 17 18 19 20 21 22 23 24 25 26 27 28 29 30 31 32 33 34 35 36 37 38 39 40 41 42 43 44 45 46 47 48 49 50

000
ASUS45 KBOU 041307
RWRCO

WEATHER ROUNDUP FOR COLORADO
NATIONAL WEATHER SERVICE DENVER/BOULDER CO
700 AM MDT MON MAY 04 2015

NOTE: "FAIR" INDICATES FEW OR NO CLOUDS BELOW 12000 FEET WITH NO
SIGNIFICANT WEATHER AND/OR OBSTRUCTIONS TO VISIBILITY.

COZ001>005-013-030-031-041400-
...NORTHWEST COLORADO...

CITY           SKY/WX    TMP DP  RH WIND       PRES   REMARKS
CRAIG          MOCLDY    44  40  85 CALM      30.08R
HAYDEN         MOCLDY    45  37  76 CALM      30.08R
MEEKER         PTCLDY    41  38  89 CALM      30.08R
MOUNT WERNER   NOT AVBL
STEAMBOAT SPGS MOCLDY    40  36  84 CALM      30.10R
WALDEN         CLOUDY    34  32  93 E3        30.14R
$$

COZ006>008-011-041400-
...WEST CENTRAL VALLEYS...

CITY           SKY/WX    TMP DP  RH WIND       PRES   REMARKS
GRAND JUNCTION PTCLDY    54  42  64 E10       30.01R
MONTROSE       PTCLDY    46  37  71 S7        30.08R
EAGLE          CLOUDY    41  39  93 CALM      30.14R
RIFLE          PTCLDY    45  42  89 E6        30.06R
DELTA          PTCLDY    50  45  82 CALM      30.05R
NUCLA          PTCLDY    48  37  66 SE12G30   30.08R
$$

COZ017>023-064>068-041400-
...SOUTHWEST COLORADO...

CITY           SKY/WX    TMP DP  RH WIND       PRES   REMARKS
DURANGO        PTCLDY    39  36  89 NE6       30.09R
CORTEZ         CLEAR     41  35  79 CALM      30.05R
PAGOSA SPRINGS PTCLDY    36  36  99 N6        30.16R
TELLURIDE      PTCLDY    38  34  84 SE6       30.19R
WOLF CREEK PAS NOT AVBL
$$

COZ009-010-012-014-032>034-037-058>063-041400-
...CENTRAL COLORADO...

CITY           SKY/WX    TMP DP  RH WIND       PRES   REMARKS
ASPEN          MOCLDY    38  35  89 S5        30.12R
BUENA VISTA    NOT AVBL
COPPER MTN     CLOUDY    36  28  75 S12       30.28R
BERTHOUD PASS  HAZE      28  19  69 SE15      30.31R VSB<1/4 WCI  17
COTTONWOOD PAS CLOUDY    41  34  75 CALM      30.23R
GUNNISON       PTCLDY    37  34  87 CALM      30.20R
KREMMLING      PTCLDY    34  32  93 CALM      30.16R
LEADVILLE      CLOUDY    35  33  92 CALM      30.21R
MONARCH PASS   FOG       32  30  93 S9        30.39R VSB 1/4 WCI  24
SALIDA         MOCLDY    47  42  84 CALM      30.24R
SUNLIGHT       CLOUDY    36  34  93 CALM      30.26R
WILKERSON PASS FOG       32  32 100 S3        30.30R VSB<1/4
$$

COZ069>075-041400-
...SAN LUIS VALLEY/SANGRE DE CRISTO MOUNTAINS...

CITY           SKY/WX    TMP DP  RH WIND       PRES   REMARKS
ALAMOSA        CLEAR     37  33  85 S3        30.15R
LA VETA PASS   FOG       36  36 100 MISG      30.25R VSB<1/4
SAGUACHE       CLEAR     41  36  81 NW6       30.16S
$$

COZ035-036-038>040-041400-
...NORTHERN COLORADO FRONT RANGE...

CITY           SKY/WX    TMP DP  RH WIND       PRES   REMARKS
DENVER INTL AP LGT RAIN  49  46  90 CALM      30.12R FOG
DMNS CITY PARK   N/A     51  45  81 NW3       30.12R
AURORA         CLOUDY    48  48 100 NE3       30.13R
FRONT RANGE AP CLOUDY    50  48  93 CALM      30.13  FOG
ERIE MUNI ARPT DRIZZLE   50  49  97 CALM      30.12R
BOULDER MUN AP CLOUDY    48  48 100 CALM      30.12R
CENTENNIAL     CLOUDY    50  45  83 N5        30.13R
BROOMFIELD     CLOUDY    50  50 100 CALM      30.13R
FORT COLLINS   CLOUDY    50  46  87 CALM      30.13S
LONGMONT       LGT RAIN  51  50  95 CALM      30.14R
$$

COZ041-046-047-076>085-087-088-041400-
...PIKES PEAK/PALMER DIVIDE AND SOUTHERN FOOTHILLS...

CITY           SKY/WX    TMP DP  RH WIND       PRES   REMARKS
COLO. SPRINGS  CLOUDY    49  46  90 NW7       30.13R
A. F. ACADEMY  PTSUNNY   48  48  98 VRB3      30.13R
ELLICOTT       CLOUDY   N/A N/A N/A E6        30.12R
FALCON         CLOUDY    46  44  94 N3        30.15R
FORT CARSON    CLOUDY    49  47  90 NW6       30.10R
LIMON          CLOUDY    48  45  89 N5        30.12R
MONUMENT HILL  CLOUDY    43  43 100 CALM      30.15R FOG
TRINIDAD       CLOUDY    48  41  76 W10       30.11R
$$

COZ042>045-048>051-090-091-041400-
...NORTHEAST COLORADO...

CITY           SKY/WX    TMP DP  RH WIND       PRES   REMARKS
GREELEY ARPT   CLOUDY    50  39  66 E7        30.13R
AKRON          CLOUDY    49  40  71 E12       30.11R
BURLINGTON     CLOUDY    49  45  86 N9        30.09R
WRAY           CLOUDY    51  40  65 N5        30.11R
STERLING       CLOUDY    50  43  76 CALM      30.11R THUNDER
HOLYOKE        NOT AVBL
FORT MORGAN    CLOUDY    50  -9   8 E5        30.12R
$$

COZ086-089-092>099-041400-
...SOUTHEAST COLORADO...

CITY           SKY/WX    TMP DP  RH WIND       PRES   REMARKS
PUEBLO         CLOUDY    55  48  77 CALM      30.08R
LA JUNTA       MOSUNNY   53  49  86 NW5       30.06R
LAMAR          CLOUDY    54  49  83 NE8       30.01R
SPRINGFIELD      N/A     54  49  83 NW20      30.01R
$$


USA.gov is the U.S. government's official web portal to all federal, state and local government web resources and services.